Probability
1 0 0 0 0 0 0 0 0 0 0 0 0 0 0 0 1 1 1 0 0 0 0 0 0 0 0 0 0 0 0 0 0 0 0 0 0 0 0 0 0 0 0
1 0 0 0 0 0 0 0 0 0 0 0 0 0 0 0 0 0 0 0 0 0 0 0 0 0 0 0 0 0 0 0 0 0 0 0 0 0 0 0 0 0 0
1 0 0 0 0 0 0 0 0 0 0 0 0 0 0 0 0 0 0 0 0 0 0 0 0 0 0 0 0 0 0 0 0 0 0 0 0 0 0 0 0 0 0
0 0 1 1 0 0 0 0 0 0 0 0 0 0 0 0 0 0 0 0 0 0 0 0 0 0 0 0 0 0 0 0 0 0 0 0 0 0 0 0 0 0 0
0 1 2 2 1 0 0 0 0 0 0 0 0 0 0 0 0 0 0 0 0 0 0 0 0 0 0 0 0 0 0 0 0 0 0 0 0 0 0 0 0 0 0
0 1 3 3 1 0 0 0 0 0 0 0 0 0 0 0 0 0 0 0 0 0 0 0 0 0 0 0 0 0 0 0 0 0 0 0 0 0 0 0 0 0 0
1 1 3 3 2 1 1 0 0 0 0 0 0 0 0 0 0 0 0 0 0 0 0 0 0 0 0 0 0 0 0 0 0 0 0 0 0 0 0 0 0 0 0
2 2 3 2 2 2 1 0 0 0 0 0 0 0 0 0 0 0 0 0 0 0 0 0 0 0 0 0 0 0 0 0 0 0 0 0 0 0 0 0 0 0 0
6 4 2 1 1 2 1 0 0 0 0 0 0 0 0 0 0 0 0 0 0 0 0 0 0 0 0 0 0 0 0 1 0 0 0 0 0 0 0 0 0 0 0
10 6 3 1 0 1 1 0 0 0 0 0 0 0 0 0 0 0 0 0 0 0 0 0 0 0 0 0 0 0 0 0 0 0 0 0 0 0 0 0 0 0 0
14 9 4 1 0 0 0 0 0 0 0 0 0 0 0 0 0 0 0 0 0 0 0 0 0 0 0 0 0 0 0 0 0 0 0 0 0 0 0 0 0 0 0
16 13 7 3 0 1 1 0 0 0 0 0 0 0 0 0 0 0 0 0 0 0 0 0 0 0 0 0 0 0 0 0 0 0 0 0 0 0 0 0 0 0 0
16 15 12 7 3 3 3 1 0 0 0 0 0 0 0 0 0 0 0 0 0 0 0 0 0 1 0 0 0 0 0 0 0 0 0 0 0 0 0 0 0 0 0
19 20 20 14 9 9 8 3 1 1 1 1 1 0 0 0 0 0 0 0 0 0 0 0 0 1 1 0 0 0 0 0 0 0 0 0 0 0 0 0 0 0 0
27 28 28 24 19 20 17 9 4 4 4 4 2 1 1 1 1 1 1 0 0 0 0 0 1 2 1 0 0 0 0 0 0 0 0 0 0 0 0 0 0 0 0
37 37 36 32 30 31 26 15 8 7 8 8 6 4 3 3 4 4 2 0 0 0 0 0 1 1 1 0 0 0 0 0 0 0 0 0 0 0 0 0 0 0 0
45 46 43 38 35 35 30 20 12 10 12 14 14 12 8 7 8 6 2 0 0 1 1 0 0 0 0 0 0 0 0 0 0 0 0 0 0 0 0 0 0 0 0
55 56 51 42 36 34 31 23 17 17 21 22 23 20 14 12 11 8 3 2 2 1 0 0 0 0 0 0 0 0 0 0 0 0 0 0 0 0 0 1 1 1 1
65 65 58 48 41 37 33 28 24 26 27 28 29 27 21 17 15 10 7 7 7 4 2 2 2 1 0 0 0 0 0 0 0 0 0 0 0 0 1 2 2 2 2
74 72 63 55 50 44 38 34 31 29 28 28 29 31 28 23 19 14 12 16 14 9 6 4 3 1 1 1 0 0 0 0 0 0 0 0 0 1 2 3 3 3 3
79 78 70 63 58 52 45 43 40 35 30 26 28 34 35 31 25 18 17 23 21 16 12 9 6 4 3 2 1 0 0 0 0 0 0 0 0 1 3 4 4 3 4
86 85 79 71 65 58 52 51 50 45 37 29 29 37 40 36 30 22 22 26 24 21 20 17 11 6 3 3 2 1 1 1 0 0 0 0 1 1 3 4 5 5 6
92 89 83 78 74 66 59 56 55 53 45 38 36 38 38 34 30 27 25 27 26 24 24 22 16 9 3 2 3 2 1 1 0 0 0 0 1 2 3 3 4 7 9
86 84 81 81 80 74 66 61 59 57 51 45 40 37 35 33 31 29 28 30 30 28 26 24 19 13 7 3 3 3 2 1 1 1 0 0 1 2 2 3 4 6 9
74 75 77 80 80 77 71 68 65 61 56 49 42 35 34 35 33 31 30 33 34 32 30 28 25 20 14 9 7 7 5 3 3 2 1 0 1 2 3 4 5 6 6
67 71 74 77 79 77 74 72 69 65 60 53 44 35 33 36 35 30 31 36 37 34 32 32 30 25 18 15 13 11 9 7 4 2 1 0 1 3 4 5 6 5 5
Wind_Speed
17 16 15 15 15 15 15 15 15 15 15 15 15 15 15 15 15 15 15 15 15 15 15 15 15 16 16 16 17 17 17 17 17 18 18 17 16 14 14 16 17 14 17
20 17 16 15 15 15 15 15 15 14 15 14 14 15 14 15 15 15 14 15 15 15 15 15 15 15 15 15 15 15 15 15 16 17 18 16 15 14 13 15 17 12 16
20 17 16 15 15 15 15 15 15 14 14 14 14 14 14 14 14 14 15 14 15 15 15 15 15 15 15 14 13 13 12 13 13 15 15 12 13 16 17 18 17 16 15
20 17 16 17 16 16 15 15 15 14 14 14 14 14 14 14 14 14 14 14 14 14 15 15 14 14 14 13 11 10 9 9 9 9 8 10 11 15 16 16 15 15 15
19 17 17 17 16 16 15 15 14 14 14 14 13 13 14 14 13 14 14 14 14 14 14 14 14 13 13 11 9 7 5 5 5 7 10 10 9 13 15 15 14 14 14
20 18 17 17 17 16 15 15 14 14 13 13 13 13 13 13 13 14 14 14 14 14 14 14 13 13 11 9 7 4 2 0 3 8 9 10 9 12 14 14 14 14 14
20 18 17 17 17 16 15 15 14 13 13 13 13 13 13 13 13 13 13 13 13 14 13 13 13 12 10 8 5 2 1 2 4 9 10 10 9 12 13 13 13 13 13
20 18 16 17 17 16 15 14 14 13 13 13 13 13 13 13 13 13 13 13 13 13 12 12 12 11 9 6 3 2 3 3 9 12 11 10 11 12 13 13 13 13 12
20 18 15 15 14 15 15 14 13 13 13 13 13 13 13 13 13 13 12 13 13 12 12 12 12 11 8 5 2 2 4 5 6 8 12 8 11 12 13 12 12 12 12
18 17 16 15 13 12 12 13 14 14 13 13 13 13 13 13 13 13 12 12 12 11 11 11 11 10 7 4 1 3 5 5 6 10 8 9 12 12 12 12 11 11 11
16 15 15 15 13 13 13 13 13 13 12 12 11 13 12 9 10 9 12 12 11 11 10 10 10 9 7 4 3 4 4 0 7 8 8 12 12 12 11 11 10 10 10
15 15 14 14 13 13 11 10 8 9 9 7 7 8 6 5 6 10 12 12 11 10 9 9 9 8 6 4 4 5 3 4 7 8 8 13 12 11 11 10 10 9 9
13 13 13 12 10 11 9 9 6 5 6 6 8 7 5 5 6 8 6 7 6 8 6 7 7 5 4 2 2 3 1 3 5 7 9 12 11 11 10 9 9 9 9
13 13 13 12 8 7 9 7 6 6 6 5 6 7 5 3 4 5 4 5 5 4 4 4 3 3 3 3 2 1 2 4 6 7 7 12 10 10 10 9 9 8 8
12 12 12 10 8 6 5 5 7 6 7 7 6 4 5 4 4 4 3 4 4 4 4 2 2 2 2 2 2 2 3 5 7 8 6 11 10 9 9 9 8 8 8
14 13 12 11 9 7 5 2 3 5 5 7 6 6 5 4 4 4 3 2 2 3 3 3 3 2 1 2 1 2 2 3 6 8 7 8 10 9 9 8 8 8 8
14 12 11 11 10 8 7 5 4 4 6 5 5 6 5 4 5 4 4 3 2 3 4 2 3 2 3 3 2 2 2 2 4 7 7 6 6 8 9 9 8 8 8
13 12 11 12 11 9 6 5 3 3 5 4 5 5 5 4 6 4 4 4 3 3 3 3 2 2 2 1 2 2 2 2 3 5 6 6 6 6 8 10 10 9 9
12 12 11 10 12 10 8 5 4 2 3 4 5 5 6 5 5 4 3 3 4 3 3 4 3 2 2 2 2 2 2 3 3 4 5 6 6 6 6 9 11 10 10
13 12 12 10 11 10 7 5 3 3 3 3 4 5 7 5 6 4 3 4 4 3 2 2 3 2 1 2 2 2 3 3 3 3 4 4 5 7 8 8 7 8 12
13 13 12 11 11 9 8 8 6 6 5 4 5 7 8 7 7 4 3 4 3 3 4 4 3 3 2 2 1 0 1 3 4 3 3 3 4 5 6 8 7 6 6
13 13 13 12 12 11 7 6 5 6 5 5 4 6 8 7 7 7 4 4 4 2 3 3 3 2 2 2 2 1 1 1 2 4 4 4 4 4 5 8 7 7 6
15 15 13 13 11 11 9 6 5 4 4 5 5 6 7 7 7 6 7 5 5 4 4 4 4 4 2 2 2 2 1 1 2 2 5 4 4 3 4 4 6 7 7
14 14 12 12 12 11 10 9 10 8 8 7 6 6 7 7 7 7 7 6 5 4 5 6 6 4 3 2 2 2 2 2 1 1 2 2 4 5 4 4 5 5 6
14 13 12 11 11 11 10 10 9 9 7 6 6 7 8 7 7 7 7 6 5 4 5 5 5 5 3 3 2 2 2 2 3 2 2 2 2 3 4 5 4 4 6
13 12 12 12 11 11 11 11 10 10 8 7 7 7 7 6 7 8 8 7 6 5 5 5 5 6 4 4 3 2 2 2 3 3 2 3 3 3 4 4 4 4 4
Wind_Direction
117 119 119 117 117 117 114 112 108 105 101 97 95 92 90 92 96 95 96 97 99 100 99 98 96 94 92 90 90 92 94 96 98 98 97 94 93 93 98 103 96 93 96
119 121 120 118 118 119 118 115 112 109 107 103 99 96 95 94 95 97 98 100 101 101 101 100 99 97 96 95 96 99 102 104 106 106 101 93 90 89 89 89 91 99 100
120 123 121 118 119 120 119 117 115 112 110 107 104 101 100 99 99 100 101 102 103 103 103 102 101 100 100 101 102 105 109 114 120 122 112 98 90 88 91 93 98 100 99
124 128 122 122 121 122 121 119 117 114 112 110 108 106 104 102 102 102 103 104 105 105 104 104 103 103 104 105 108 110 115 126 135 136 106 99 95 95 96 98 101 101 100
126 122 122 125 124 123 122 121 119 116 115 114 111 109 107 105 105 105 105 105 106 106 106 105 105 106 107 110 112 115 121 130 134 105 89 89 92 100 101 101 101 101 102
125 123 126 127 126 125 124 122 121 120 119 116 113 112 110 109 109 108 107 106 106 106 106 106 107 108 109 112 115 115 107 109 113 104 102 100 99 102 102 102 102 101 101
125 125 129 130 129 128 127 126 125 125 124 120 116 115 113 114 113 111 110 109 108 108 107 108 108 110 111 115 115 101 11 335 110 101 94 95 101 104 103 103 103 102 102
126 127 130 132 132 132 131 131 130 129 126 123 120 119 117 117 115 114 114 112 111 110 110 110 111 112 112 112 104 34 341 338 106 105 101 100 107 105 104 104 104 104 105
127 130 137 137 137 136 135 134 133 130 129 128 126 125 123 120 118 118 117 116 115 114 114 114 116 117 118 119 109 319 323 347 100 111 108 107 110 109 108 106 107 107 107
131 138 143 143 143 145 141 141 138 136 135 134 134 134 130 127 126 126 122 119 119 119 119 120 124 126 130 138 192 299 322 334 113 103 104 115 117 116 115 113 112 111 111
137 142 146 146 153 154 149 145 144 143 143 143 144 145 146 146 141 140 121 127 127 127 129 131 137 141 147 167 223 276 297 266 95 99 103 120 123 121 121 121 118 116 116
143 148 149 151 161 160 149 146 155 157 153 164 153 160 174 154 137 125 130 136 138 139 143 152 155 163 177 177 202 238 250 141 113 107 118 128 128 128 127 126 126 125 124
149 153 149 154 164 156 142 159 165 154 157 170 161 170 176 146 132 128 144 144 149 158 166 160 177 194 187 187 186 206 197 100 109 110 128 133 134 135 136 137 136 133 132
158 157 150 153 158 150 148 160 162 155 163 161 165 178 159 153 147 147 154 161 167 175 175 179 197 163 171 182 174 140 99 95 104 113 136 140 141 144 145 146 148 146 143
162 158 148 151 153 146 138 163 167 157 162 153 160 175 160 159 151 147 153 165 177 160 168 175 143 136 139 132 106 97 86 101 121 124 134 150 151 154 157 157 158 159 158
167 160 152 154 148 141 141 169 150 150 148 149 163 166 172 155 141 140 145 169 171 144 143 143 147 143 139 103 104 111 106 107 120 131 142 155 162 165 167 170 171 171 173
169 159 154 154 150 153 160 183 174 163 157 155 154 152 171 158 147 152 159 179 166 129 120 138 155 152 167 159 151 139 124 119 121 135 149 158 167 177 180 182 182 185 185
167 158 161 166 159 162 168 186 188 176 153 148 149 153 172 163 157 169 166 178 151 147 151 153 180 163 149 150 159 164 129 134 148 157 159 164 168 174 186 193 191 193 195
163 159 164 165 162 167 172 181 195 170 152 151 155 157 170 171 167 185 171 150 153 163 161 178 157 162 161 176 181 167 165 177 177 186 168 173 170 168 173 188 194 197 201
162 162 167 169 164 166 168 178 190 175 170 169 164 162 164 173 174 190 168 150 169 170 160 132 128 140 147 192 217 171 187 183 183 180 189 182 173 179 176 174 184 202 208
166 166 171 176 170 170 176 181 185 184 185 187 181 168 168 178 177 189 177 155 184 174 162 158 151 160 197 200 177 187 223 198 186 181 204 190 188 189 171 169 186 186 197
172 172 175 180 178 180 181 183 187 182 183 189 189 167 174 181 179 185 185 173 181 171 164 159 150 166 207 191 172 154 232 252 238 212 194 195 199 193 183 187 188 177 188
178 180 183 183 182 185 180 180 186 177 188 193 186 174 183 185 186 192 180 187 176 182 173 178 174 190 204 208 202 174 176 208 231 237 215 202 188 196 203 194 191 187 195
182 182 183 182 184 187 184 189 189 190 193 196 185 178 185 191 191 193 185 191 183 190 170 185 185 191 197 215 220 212 184 165 185 242 262 219 200 208 209 211 207 191 197
183 183 183 182 186 187 191 196 195 200 200 194 186 180 184 189 195 199 194 189 191 200 189 191 171 187 195 217 221 206 211 203 211 199 240 243 236 223 208 210 208 201 194
182 183 183 184 188 189 195 201 203 205 203 197 190 183 186 187 195 202 200 191 193 205 200 190 180 190 204 219 238 234 204 204 220 216 220 227 233 237 221 210 204 204 198